| time (UTC) | temp F | wind direction | speed knots | gust knots | rain 1hr in | rain 24hr in | rain mn in | humidity % | barometer mb |
| 20260903171541 | 82 | 311 | 1.7 | 7.8 | 0.00 | 0.54 | 0.01 | 69 | 1013.0 |
| 20260903170103 | 81 | 327 | 2.6 | 6.1 | 0.00 | 0.54 | 0.01 | 71 | 1013.0 |
| 20260903164548 | 81 | 322 | 0.9 | 8.7 | 0.00 | 0.54 | 0.01 | 71 | 1013.2 |
| 20260903163039 | 81 | 305 | 1.7 | 5.2 | 0.00 | 0.54 | 0.01 | 70 | 1013.5 |
| 20260903161536 | 80 | 309 | 1.7 | 5.2 | 0.00 | 0.54 | 0.01 | 72 | 1013.7 |
| 20260903160034 | 78 | 294 | 1.7 | 6.1 | 0.00 | 0.54 | 0.01 | 75 | 1013.9 |
| 20260903154532 | 78 | 296 | 0.0 | 4.3 | 0.00 | 0.54 | 0.01 | 76 | 1014.0 |
| 20260903153027 | 76 | 248 | 0.0 | 7.8 | 0.00 | 0.54 | 0.01 | 78 | 1014.1 |
| 20260903151527 | 76 | 308 | 1.7 | 5.2 | 0.00 | 0.54 | 0.01 | 77 | 1014.3 |
| 20260903150028 | 75 | 320 | 1.7 | 6.1 | 0.00 | 0.55 | 0.01 | 79 | 1014.5 |
| 20260903144524 | 75 | 312 | 1.7 | 6.1 | 0.00 | 0.55 | 0.01 | 80 | 1014.1 |
| 20260903143023 | 74 | 306 | 2.6 | 6.1 | 0.00 | 0.55 | 0.01 | 81 | 1014.1 |
| 20260903141522 | 73 | 297 | 0.0 | 4.3 | 0.00 | 0.55 | 0.01 | 84 | 1014.0 |
| 20260903140017 | 72 | 46 | 0.0 | 1.7 | 0.00 | 0.68 | 0.01 | 86 | 1014.2 |
| 20260903134512 | 70 | 169 | 0.0 | 6.1 | 0.00 | 0.68 | 0.01 | 90 | 1014.2 |
| 20260903133009 | 69 | 331 | 0.0 | 1.7 | 0.00 | 0.68 | 0.01 | 90 | 1014.5 |
| 20260903131507 | 68 | 323 | 0.0 | 2.6 | 0.00 | 0.70 | 0.01 | 92 | 1014.8 |
| 20260903130004 | 67 | 293 | 0.0 | 0.0 | 0.00 | 0.70 | 0.01 | 92 | 1015.2 |
| 20260903124504 | 66 | 293 | 0.0 | 6.1 | 0.00 | 0.70 | 0.01 | 92 | 1015.2 |
| 20260903123003 | 66 | 44 | 0.0 | 0.9 | 0.00 | 0.70 | 0.01 | 92 | 1015.3 |
| 20260903121604 | 66 | 44 | 0.0 | 2.6 | 0.00 | 0.70 | 0.01 | 92 | 1014.9 |
| 20260903120059 | 66 | 42 | 0.0 | 1.7 | 0.00 | 0.70 | 0.01 | 93 | 1014.8 |
| 20260903114604 | 66 | 42 | 0.0 | 0.0 | 0.01 | 0.70 | 0.01 | 93 | 1014.8 |
| 20260903113058 | 66 | 42 | 0.0 | 0.0 | 0.01 | 0.70 | 0.01 | 93 | 1014.4 |
| 20260903111623 | 65 | 42 | 0.0 | 0.0 | 0.01 | 0.70 | 0.01 | 93 | 1014.3 |
| 20260903110108 | 65 | 42 | 0.0 | 0.0 | 0.01 | 0.70 | 0.01 | 93 | 1014.2 |
| 20260903104622 | 65 | 42 | 0.0 | 0.0 | 0.00 | 0.69 | 0.00 | 92 | 1013.9 |
| 20260903103054 | 65 | 42 | 0.0 | 0.0 | 0.00 | 0.69 | 0.00 | 93 | 1013.6 |
| 20260903101551 | 66 | 42 | 0.0 | 0.9 | 0.00 | 0.69 | 0.00 | 93 | 1013.5 |
| 20260903100050 | 66 | 42 | 0.0 | 0.0 | 0.00 | 0.69 | 0.00 | 92 | 1013.2 |
| 20260903094555 | 66 | 42 | 0.0 | 0.0 | 0.01 | 0.69 | 0.00 | 92 | 1013.5 |
| 20260903093047 | 66 | 42 | 0.0 | 0.0 | 0.02 | 0.69 | 0.00 | 92 | 1014.2 |
| 20260903091543 | 66 | 42 | 0.0 | 2.6 | 0.02 | 0.69 | 0.00 | 92 | 1014.4 |
| 20260903090048 | 66 | 40 | 0.0 | 2.6 | 0.03 | 0.69 | 0.69 | 92 | 1014.5 |
| 20260903084543 | 67 | 39 | 0.0 | 0.0 | 0.02 | 0.68 | 0.68 | 92 | 1014.6 |
| 20260903083042 | 66 | 41 | 0.0 | 1.7 | 0.02 | 0.67 | 0.67 | 92 | 1014.2 |
| 20260903081543 | 67 | 304 | 0.0 | 3.5 | 0.02 | 0.67 | 0.67 | 92 | 1014.0 |
| 20260903080041 | 67 | 142 | 0.9 | 12.2 | 0.01 | 0.66 | 0.66 | 92 | 1013.0 |
| 20260903074540 | 66 | 155 | 0.0 | 6.1 | 0.02 | 0.66 | 0.66 | 92 | 1013.3 |
| 20260903073045 | 66 | 108 | 3.5 | 9.6 | 0.04 | 0.66 | 0.66 | 92 | 1013.7 |
| 20260903071539 | 66 | 270 | 1.7 | 6.1 | 0.06 | 0.65 | 0.65 | 92 | 1014.6 |
| 20260903070043 | 66 | 128 | 0.0 | 4.3 | 0.06 | 0.65 | 0.65 | 92 | 1014.3 |
| 20260903064538 | 66 | 291 | 0.0 | 0.0 | 0.06 | 0.65 | 0.65 | 92 | 1015.0 |
| 20260903063038 | 66 | 292 | 0.0 | 1.7 | 0.04 | 0.63 | 0.63 | 92 | 1015.4 |
| 20260903061555 | 67 | 286 | 0.0 | 3.5 | 0.01 | 0.59 | 0.59 | 92 | 1014.8 |
| 20260903060037 | 67 | 159 | 0.0 | 2.6 | 0.03 | 0.59 | 0.59 | 92 | 1014.0 |
| 20260903054536 | 67 | 147 | 0.0 | 5.2 | 0.05 | 0.59 | 0.59 | 91 | 1014.2 |
| 20260903053041 | 67 | 296 | 0.9 | 4.3 | 0.14 | 0.59 | 0.59 | 91 | 1014.5 |
| 20260903051540 | 68 | 126 | 6.1 | 12.2 | 0.15 | 0.57 | 0.57 | 91 | 1014.0 |
| 20260903050038 | 67 | 150 | 1.7 | 7.8 | 0.15 | 0.56 | 0.56 | 92 | 1014.8 |
| 20260903044536 | 67 | 156 | 0.9 | 7.8 | 0.12 | 0.54 | 0.54 | 93 | 1015.0 |
| 20260903043040 | 66 | 114 | 2.6 | 12.2 | 0.07 | 0.49 | 0.49 | 92 | 1016.0 |
| 20260903041540 | 66 | 132 | 0.0 | 0.0 | 0.01 | 0.43 | 0.43 | 92 | 1015.3 |
| 20260903040038 | 66 | 132 | 0.0 | 1.7 | 0.00 | 0.42 | 0.42 | 92 | 1015.5 |
| 20260903034536 | 66 | 132 | 0.0 | 0.0 | 0.00 | 0.42 | 0.42 | 92 | 1015.3 |
| 20260903033038 | 66 | 132 | 0.9 | 3.5 | 0.00 | 0.42 | 0.42 | 92 | 1015.5 |
| 20260903031542 | 67 | 132 | 0.0 | 0.9 | 0.00 | 0.42 | 0.42 | 92 | 1016.2 |
| 20260903030104 | 66 | 132 | 0.0 | 4.3 | 0.01 | 0.42 | 0.42 | 92 | 1016.3 |
| 20260903024538 | 67 | 131 | 0.0 | 0.0 | 0.25 | 0.42 | 0.42 | 92 | 1016.0 |
| 20260903023037 | 67 | 130 | 0.0 | 5.2 | 0.25 | 0.42 | 0.42 | 91 | 1015.8 |
| 20260903021536 | 67 | 146 | 0.9 | 5.2 | 0.25 | 0.42 | 0.42 | 91 | 1014.3 |
| 20260903020034 | 68 | 28 | 0.0 | 8.7 | 0.25 | 0.42 | 0.42 | 89 | 1015.2 |
| 20260903014533 | 72 | 328 | 8.7 | 12.2 | 0.00 | 0.17 | 0.17 | 91 | 1016.5 |
| 20260903013041 | 72 | 165 | 0.0 | 6.1 | 0.00 | 0.17 | 0.17 | 91 | 1015.4 |
| 20260903011532 | 72 | 117 | 0.0 | 0.9 | 0.00 | 0.17 | 0.17 | 91 | 1015.2 |
| 20260903010036 | 72 | 117 | 0.0 | 0.9 | 0.00 | 0.17 | 0.17 | 91 | 1014.1 |
| 20260903004531 | 72 | 115 | 0.0 | 0.0 | 0.00 | 0.17 | 0.17 | 91 | 1014.2 |
| 20260903003037 | 72 | 169 | 0.0 | 6.1 | 0.00 | 0.17 | 0.17 | 90 | 1013.6 |
| 20260903001532 | 73 | 115 | 2.6 | 11.3 | 0.00 | 0.17 | 0.17 | 90 | 1012.6 |
| 20260903000031 | 73 | 156 | 0.0 | 6.1 | 0.00 | 0.17 | 0.17 | 90 | 1013.3 |
| 20260902234529 | 74 | 198 | 0.0 | 11.3 | 0.00 | 0.17 | 0.17 | 88 | 1013.6 |
| 20260902233029 | 75 | 153 | 0.0 | 2.6 | 0.00 | 0.17 | 0.17 | 87 | 1014.0 |
| 20260902231531 | 75 | 151 | 0.0 | 0.0 | 0.00 | 0.17 | 0.17 | 87 | 1014.0 |
| 20260902230028 | 75 | 151 | 0.0 | 0.0 | 0.00 | 0.17 | 0.17 | 86 | 1013.9 |
| 20260902224544 | 76 | 112 | 0.0 | 0.0 | 0.00 | 0.17 | 0.17 | 86 | 1013.3 |
| 20260902223027 | 76 | 117 | 0.9 | 6.1 | 0.00 | 0.17 | 0.17 | 85 | 1013.1 |
| 20260902221534 | 76 | 130 | 0.0 | 5.2 | 0.00 | 0.17 | 0.17 | 85 | 1013.6 |
| 20260902220046 | 77 | 196 | 0.0 | 6.1 | 0.00 | 0.18 | 0.17 | 84 | 1013.6 |
| 20260902214522 | 77 | 128 | 0.0 | 6.1 | 0.00 | 0.18 | 0.17 | 83 | 1013.9 |
| 20260902213022 | 77 | 123 | 0.9 | 7.8 | 0.00 | 0.18 | 0.17 | 83 | 1014.2 |
| 20260902211525 | 77 | 186 | 0.0 | 7.0 | 0.00 | 0.18 | 0.17 | 82 | 1014.4 |
| 20260902210022 | 77 | 140 | 0.0 | 6.1 | 0.00 | 0.18 | 0.17 | 82 | 1014.5 |
| 20260902204523 | 78 | 148 | 0.0 | 3.5 | 0.00 | 0.18 | 0.17 | 82 | 1014.7 |
| 20260902203014 | 77 | 111 | 0.0 | 6.1 | 0.00 | 0.18 | 0.17 | 82 | 1014.9 |
| 20260902201534 | 77 | 123 | 1.7 | 9.6 | 0.00 | 0.18 | 0.17 | 84 | 1015.0 |
| 20260902200009 | 76 | 171 | 0.0 | 9.6 | 0.00 | 0.18 | 0.17 | 84 | 1014.9 |
| 20260902194519 | 76 | 157 | 0.0 | 7.8 | 0.00 | 0.18 | 0.17 | 85 | 1015.0 |
| 20260902193016 | 74 | 156 | 0.9 | 8.7 | 0.01 | 0.18 | 0.17 | 86 | 1015.1 |
| 20260902191505 | 74 | 153 | 0.0 | 5.2 | 0.01 | 0.18 | 0.17 | 87 | 1015.4 |
| 20260902190004 | 72 | 119 | 1.7 | 6.1 | 0.01 | 0.18 | 0.17 | 91 | 1015.7 |
| 20260902184504 | 72 | 121 | 0.0 | 2.6 | 0.01 | 0.18 | 0.17 | 90 | 1016.2 |
| 20260902183003 | 72 | 121 | 0.0 | 0.9 | 0.00 | 0.17 | 0.16 | 90 | 1016.7 |
| 20260902181504 | 72 | 117 | 0.9 | 8.7 | 0.00 | 0.17 | 0.16 | 89 | 1015.8 |
| 20260902180006 | 73 | 123 | 2.6 | 7.8 | 0.00 | 0.17 | 0.16 | 88 | 1016.0 |
| 20260902174502 | 74 | 190 | 0.0 | 2.6 | 0.00 | 0.17 | 0.16 | 87 | 1016.1 |
| 20260902173003 | 74 | 179 | 0.0 | 4.3 | 0.00 | 0.17 | 0.16 | 86 | 1015.6 |